Weather Roundup
Issued by NWS

Home | Current Version | Previous Version | Text Only | Print | Product List | Glossary On
Versions: 1 2 3 4 5 6 7 8 9 10 11 12 13 14 15 16 17 18 19 20 21 22 23 24 25 26 27 28 29 30 31 32 33 34 35 36 37 38 39 40 41 42 43 44 45 46 47 48 49 50
942
NZUS93 KARX 200710
HRRWXR

CURRENT HOURLY OBSERVATIONS ACROSS
MUCH OF THE UPPER MISSISSIPPI VALLEY
NATIONAL WEATHER SERVICE LA CROSSE WI
200 AM CDT FRI APR 20 2018


...SOUTHEAST MINNESOTA...


CITY           SKY/WX    TMP DP  RH WIND       PRES   REMARKS
ROCHESTER      FAIR      30  23  75 W9        30.46S WCI  22
ROCHESTER/MAYO FAIR      33  25  71 CALM      30.47R
WINONA         FAIR      30  27  86 CALM      30.46S
AUSTIN         FAIR      21  19  93 CALM      30.47S FOG
ALBERT LEA     FAIR      21  18  86 CALM      30.47S
DODGE CENTER   FAIR      28  21  74 SW6       30.46S WCI  22
PRESTON        FAIR      30  22  70 W6        30.46F WCI  24
OWATONNA       FAIR      27  23  86 SW3       30.47S
FARIBAULT      FAIR      25  21  86 CALM      30.48R
$$

...ELSEWHERE IN MINNESOTA...


CITY           SKY/WX    TMP DP  RH WIND       PRES   REMARKS
MINNEAPOLIS    FAIR      36  26  67 SW5       30.47R WCI  32
INTNL FALLS    FAIR      25  21  85 CALM      30.38S
DULUTH         FAIR      35  18  49 NW5       30.40R WCI  31
RED WING       FAIR      27  19  74 CALM      30.47R
REDWOOD FALLS  CLOUDY    28  22  78 SW3       30.47R
MANKATO        FAIR      31  23  72 SW3       30.48S
WORTHINGTON    CLOUDY    30  21  69 SE6       30.46S WCI  24
FAIRMONT       CLOUDY    20  17  88 W3        30.48S
$$

...SOUTHWEST WISCONSIN...


CITY           SKY/WX    TMP DP  RH WIND       PRES   REMARKS
LA CROSSE      FAIR      30  26  85 CALM      30.47R
PRAIRIE DU CHI FAIR      28  24  84 CALM      30.48S
BOSCOBEL       FAIR      26  23  88 CALM      30.48S
LONE ROCK      FAIR      23  22  96 CALM      30.47S
PLATTEVILLE    FAIR      35  26  72 CALM      30.46S
FORT MC COY    FAIR      21  20  95 CALM      30.47S
CAMP DOUGLAS   FAIR      24  21  91 CALM      30.44S
MAUSTON-NEW LI FAIR      25  21  82 CALM      30.44S
VIROQUA        FAIR      33  23  66 W5        30.45S WCI  29
WIS DELLS      FAIR      26  21  81 S3        30.45S
$$

...ELSEWHERE IN WISCONSIN...


CITY           SKY/WX    TMP DP  RH WIND       PRES   REMARKS
MILWAUKEE      FAIR      39  25  57 NW6       30.43R WCI  35
MADISON        FAIR      26  22  84 CALM      30.45R
GREEN BAY      FAIR      29  22  75 CALM      30.42S
EAU CLAIRE     FAIR      28  23  81 S3        30.45R
BLACK RVR FLS  FAIR      17  17  98 CALM      30.46R
MEDFORD        FAIR      25  18  76 CALM      30.42S
WAUSAU         FAIR      28  23  81 NW6       30.41S WCI  22
WIS RAPIDS     FAIR      25  17  72 CALM      30.44S
MARSHFIELD     FAIR      29  16  58 NW7       30.41S WCI  22
RICE LAKE      FAIR      26  25  94 CALM      30.46S
$$

...NORTHEAST IOWA...


CITY           SKY/WX    TMP DP  RH WIND       PRES   REMARKS
WATERLOO       FAIR      24  22  91 CALM      30.47S
DUBUQUE        FAIR      29  22  75 CALM      30.46R
DECORAH        FAIR      28  23  80 CALM      30.46R
MASON CITY     CLOUDY    22  19  89 W6        30.49R WCI  14
CHARLES CITY   FAIR      28  23  80 N5        30.48S WCI  23
OELWEIN        FAIR      28  28 100 N5        30.47S WCI  23
$$

...ELSEWHERE IN IOWA...


CITY           SKY/WX    TMP DP  RH WIND       PRES   REMARKS
DES MOINES     CLOUDY    38  24  57 E6        30.47S WCI  33
IOWA CITY      FAIR      30  23  75 CALM      30.48S
FORT DODGE     CLOUDY    27  24  89 E5        30.47S WCI  22
MARSHALLTOWN   CLOUDY    30  25  81 CALM      30.47R
CEDAR RAPIDS   FAIR      29  23  78 N5        30.46R WCI  24
$$

...NORTHERN ILLINOIS...


CITY           SKY/WX    TMP DP  RH WIND       PRES   REMARKS
CHICAGO-OHARE  FAIR      37  23  56 NW5       30.43S WCI  33
CHICAGO-MIDWAY FAIR      39  24  55 CALM      30.44S
MOLINE         FAIR      28  25  88 CALM      30.46R
ROCKFORD       FAIR      29  24  82 CALM      30.47S
PEORIA         FAIR      38  27  64 NE3       30.46S
$$

NOTE: "FAIR" INDICATES FEW OR NO CLOUDS BELOW 12,000 FEET WITH NO
SIGNIFICANT WEATHER AND/OR OBSTRUCTIONS TO VISIBILITY. WIND
SPEEDS ARE IN MILES-PER-HOUR.




USA.gov is the U.S. government's official web portal to all federal, state and local government web resources and services.